Volver al catálogo

SL-14 R/B

ActivoPO
NORAD 21398·ROCKET BODY·🇷🇺 Russia

Lanzado Jun 4, 1991 desde Plesetsk Cosmodrome

Loading…

Próximos Pases (próximas 24 horas)

TLE

ActualizadoSource: Space-Track

Época: Sep 14, 2026, 04:20 UTC

1 21398U 91039B   26257.18118812  .00000238  00000-0  27079-4 0  9999
2 21398  82.5236 320.3710 0019068 265.8444  94.0591 14.81954878882319

Sigue SL-14 R/B en tiempo real con AllMySat

Download on the App Store